Wetterdaten: Samstag, 19.12.2015
Datum Zeit Temp. A. Feuchte A. Luftdruck Regen Wind Richtung Richtung Sonnenschein ET UV Solar Taupunkt Windchill Windben Empfang
19.12.2015 00:00 6,3 C 97 % 1026,8 hPa 0,0 l/m 1,8 km/h (1 Bft) O-NO 74 0 min 0,000 mm 0,0 UV-I 0 W/m 5,9 C 6,3 C 4,8 km/h (1 Bft) 99,08 %
19.12.2015 00:05 6,2 C 98 % 1026,8 hPa 0,0 l/m 0,0 km/h (0 Bft) O-NO 74 0 min 0,000 mm 0,0 UV-I 0 W/m 5,9 C 6,2 C 0,0 km/h (0 Bft) 99,10 %
19.12.2015 00:10 6,2 C 98 % 1026,9 hPa 0,0 l/m 0,4 km/h (0 Bft) O-NO 74 0 min 0,000 mm 0,0 UV-I 0 W/m 5,9 C 6,2 C 1,6 km/h (1 Bft) 100,00 %
19.12.2015 00:15 6,2 C 98 % 1026,8 hPa 0,0 l/m 0,4 km/h (0 Bft) O-NO 74 0 min 0,000 mm 0,0 UV-I 0 W/m 5,9 C 6,2 C 1,6 km/h (1 Bft) 98,31 %
19.12.2015 00:20 6,2 C 98 % 1026,8 hPa 0,0 l/m 0,4 km/h (0 Bft) O-NO 74 0 min 0,000 mm 0,0 UV-I 0 W/m 5,9 C 6,2 C 1,6 km/h (1 Bft) 97,39 %
19.12.2015 00:25 6,3 C 98 % 1026,8 hPa 0,0 l/m 0,0 km/h (0 Bft) O-NO 74 0 min 0,000 mm 0,0 UV-I 0 W/m 6,0 C 6,3 C 0,0 km/h (0 Bft) 97,44 %
19.12.2015 00:30 6,3 C 98 % 1026,8 hPa 0,0 l/m 0,0 km/h (0 Bft) O-NO 74 0 min 0,000 mm 0,0 UV-I 0 W/m 6,0 C 6,3 C 1,6 km/h (1 Bft) 96,77 %
19.12.2015 00:35 6,3 C 98 % 1026,7 hPa 0,0 l/m 2,0 km/h (1 Bft) O-NO 74 0 min 0,000 mm 0,0 UV-I 0 W/m 6,0 C 6,3 C 3,2 km/h (1 Bft) 96,58 %
19.12.2015 00:40 6,2 C 98 % 1026,7 hPa 0,0 l/m 2,5 km/h (1 Bft) O-NO 74 0 min 0,000 mm 0,0 UV-I 0 W/m 5,9 C 6,2 C 3,2 km/h (1 Bft) 98,31 %
19.12.2015 00:45 6,2 C 98 % 1026,7 hPa 0,0 l/m 1,0 km/h (0 Bft) O-NO 74 0 min 0,000 mm 0,0 UV-I 0 W/m 5,9 C 6,2 C 3,2 km/h (1 Bft) 96,43 %
19.12.2015 00:50 6,2 C 98 % 1026,7 hPa 0,0 l/m 0,3 km/h (0 Bft) O-NO 74 0 min 0,000 mm 0,0 UV-I 0 W/m 5,9 C 6,2 C 1,6 km/h (1 Bft) 96,75 %
19.12.2015 00:55 6,1 C 98 % 1026,7 hPa 0,0 l/m 0,0 km/h (0 Bft) O-NO 74 0 min 0,000 mm 0,0 UV-I 0 W/m 5,8 C 6,1 C 0,0 km/h (0 Bft) 99,11 %
19.12.2015 01:00 6,2 C 99 % 1026,7 hPa 0,0 l/m 0,8 km/h (0 Bft) O-NO 74 0 min 0,000 mm 0,0 UV-I 0 W/m 6,1 C 6,2 C 3,2 km/h (1 Bft) 99,13 %
19.12.2015 01:05 6,2 C 99 % 1026,5 hPa 0,0 l/m 2,0 km/h (1 Bft) O-NO 74 0 min 0,000 mm 0,0 UV-I 0 W/m 6,1 C 6,2 C 3,2 km/h (1 Bft) 99,15 %
19.12.2015 01:10 6,2 C 98 % 1026,5 hPa 0,0 l/m 1,1 km/h (1 Bft) O-NO 74 0 min 0,000 mm 0,0 UV-I 0 W/m 5,9 C 6,2 C 3,2 km/h (1 Bft) 99,19 %
19.12.2015 01:15 6,1 C 98 % 1026,4 hPa 0,0 l/m 2,2 km/h (1 Bft) O-NO 74 0 min 0,000 mm 0,0 UV-I 0 W/m 5,8 C 6,1 C 3,2 km/h (1 Bft) 99,10 %
19.12.2015 01:20 6,0 C 99 % 1026,4 hPa 0,0 l/m 1,7 km/h (1 Bft) O-NO 74 0 min 0,000 mm 0,0 UV-I 0 W/m 5,9 C 6,0 C 3,2 km/h (1 Bft) 100,00 %
19.12.2015 01:25 5,7 C 98 % 1026,4 hPa 0,0 l/m 2,3 km/h (1 Bft) O-NO 74 0 min 0,000 mm 0,0 UV-I 0 W/m 5,4 C 5,7 C 3,2 km/h (1 Bft) 99,15 %
19.12.2015 01:30 5,3 C 98 % 1026,4 hPa 0,0 l/m 1,1 km/h (1 Bft) O-NO 74 0 min 0,000 mm 0,0 UV-I 0 W/m 5,0 C 5,3 C 3,2 km/h (1 Bft) 100,00 %
19.12.2015 01:35 5,2 C 98 % 1026,4 hPa 0,0 l/m 1,1 km/h (1 Bft) O-NO 74 0 min 0,000 mm 0,0 UV-I 0 W/m 4,9 C 5,2 C 3,2 km/h (1 Bft) 100,00 %
19.12.2015 01:40 5,2 C 98 % 1026,4 hPa 0,0 l/m 0,0 km/h (0 Bft) O-NO 74 0 min 0,000 mm 0,0 UV-I 0 W/m 4,9 C 5,2 C 1,6 km/h (1 Bft) 99,21 %
19.12.2015 01:45 5,1 C 98 % 1026,4 hPa 0,0 l/m 0,6 km/h (0 Bft) O-NO 74 0 min 0,000 mm 0,0 UV-I 0 W/m 4,8 C 5,1 C 1,6 km/h (1 Bft) 99,13 %
19.12.2015 01:50 4,7 C 98 % 1026,4 hPa 0,0 l/m 0,6 km/h (0 Bft) O-NO 74 0 min 0,000 mm 0,0 UV-I 0 W/m 4,4 C 4,7 C 1,6 km/h (1 Bft) 100,00 %
19.12.2015 01:55 4,6 C 98 % 1026,4 hPa 0,0 l/m 0,0 km/h (0 Bft) O-NO 74 0 min 0,000 mm 0,0 UV-I 0 W/m 4,3 C 4,6 C 1,6 km/h (1 Bft) 98,29 %
19.12.2015 02:00 4,6 C 98 % 1026,4 hPa 0,0 l/m 0,9 km/h (0 Bft) O-NO 74 0 min 0,000 mm 0,0 UV-I 0 W/m 4,3 C 4,6 C 1,6 km/h (1 Bft) 100,00 %
19.12.2015 02:05 4,4 C 98 % 1026,5 hPa 0,0 l/m 0,4 km/h (0 Bft) O-NO 74 0 min 0,000 mm 0,0 UV-I 0 W/m 4,1 C 4,4 C 1,6 km/h (1 Bft) 99,13 %
19.12.2015 02:10 4,3 C 99 % 1026,4 hPa 0,0 l/m 1,2 km/h (1 Bft) O-NO 74 0 min 0,000 mm 0,0 UV-I 0 W/m 4,2 C 4,3 C 3,2 km/h (1 Bft) 97,62 %
19.12.2015 02:15 4,5 C 98 % 1026,4 hPa 0,0 l/m 2,1 km/h (1 Bft) O-NO 74 0 min 0,000 mm 0,0 UV-I 0 W/m 4,2 C 4,5 C 4,8 km/h (1 Bft) 100,00 %
19.12.2015 02:20 5,4 C 99 % 1026,4 hPa 0,0 l/m 2,4 km/h (1 Bft) O-NO 74 0 min 0,000 mm 0,0 UV-I 0 W/m 5,3 C 5,4 C 4,8 km/h (1 Bft) 100,00 %
19.12.2015 02:25 4,7 C 99 % 1026,5 hPa 0,0 l/m 2,6 km/h (1 Bft) NO 52 0 min 0,000 mm 0,0 UV-I 0 W/m 4,6 C 4,7 C 3,2 km/h (1 Bft) 95,04 %
19.12.2015 02:30 4,2 C 98 % 1026,5 hPa 0,0 l/m 2,2 km/h (1 Bft) NO 40 0 min 0,000 mm 0,0 UV-I 0 W/m 3,9 C 4,2 C 4,8 km/h (1 Bft) 95,41 %
19.12.2015 02:35 4,4 C 99 % 1026,5 hPa 0,0 l/m 2,7 km/h (1 Bft) NO 48 0 min 0,000 mm 0,0 UV-I 0 W/m 4,3 C 4,4 C 3,2 km/h (1 Bft) 97,50 %
19.12.2015 02:40 4,7 C 99 % 1026,5 hPa 0,0 l/m 3,1 km/h (1 Bft) O-NO 63 0 min 0,000 mm 0,0 UV-I 0 W/m 4,6 C 4,7 C 4,8 km/h (1 Bft) 97,46 %
19.12.2015 02:45 5,0 C 99 % 1026,4 hPa 0,0 l/m 3,1 km/h (1 Bft) O-NO 63 0 min 0,000 mm 0,0 UV-I 0 W/m 4,9 C 5,0 C 4,8 km/h (1 Bft) 97,39 %
19.12.2015 02:50 5,3 C 99 % 1026,5 hPa 0,0 l/m 3,1 km/h (1 Bft) O-NO 63 0 min 0,000 mm 0,0 UV-I 0 W/m 5,2 C 5,3 C 4,8 km/h (1 Bft) 97,44 %
19.12.2015 02:55 5,4 C 99 % 1026,5 hPa 0,0 l/m 3,0 km/h (1 Bft) O-NO 63 0 min 0,000 mm 0,0 UV-I 0 W/m 5,3 C 5,4 C 4,8 km/h (1 Bft) 95,97 %
19.12.2015 03:00 5,3 C 99 % 1026,6 hPa 0,0 l/m 4,1 km/h (1 Bft) O-NO 62 0 min 0,000 mm 0,0 UV-I 0 W/m 5,2 C 5,3 C 8,0 km/h (2 Bft) 98,20 %
19.12.2015 03:05 5,4 C 99 % 1026,6 hPa 0,0 l/m 6,2 km/h (2 Bft) NO 51 0 min 0,000 mm 0,0 UV-I 0 W/m 5,3 C 5,4 C 9,7 km/h (2 Bft) 96,52 %
19.12.2015 03:10 5,3 C 99 % 1026,6 hPa 0,0 l/m 4,8 km/h (1 Bft) NO 55 0 min 0,000 mm 0,0 UV-I 0 W/m 5,2 C 5,3 C 8,0 km/h (2 Bft) 98,26 %
19.12.2015 03:15 5,3 C 99 % 1026,5 hPa 0,0 l/m 5,1 km/h (1 Bft) NO 49 0 min 0,000 mm 0,0 UV-I 0 W/m 5,2 C 5,3 C 6,4 km/h (2 Bft) 97,56 %
19.12.2015 03:20 5,3 C 99 % 1026,5 hPa 0,0 l/m 5,7 km/h (1 Bft) NO 43 0 min 0,000 mm 0,0 UV-I 0 W/m 5,2 C 5,3 C 8,0 km/h (2 Bft) 99,11 %
19.12.2015 03:25 5,4 C 99 % 1026,4 hPa 0,0 l/m 5,3 km/h (1 Bft) NO 53 0 min 0,000 mm 0,0 UV-I 0 W/m 5,3 C 5,4 C 8,0 km/h (2 Bft) 98,29 %
19.12.2015 03:30 5,5 C 99 % 1026,4 hPa 0,0 l/m 5,1 km/h (1 Bft) O-NO 72 0 min 0,000 mm 0,0 UV-I 0 W/m 5,4 C 5,5 C 6,4 km/h (2 Bft) 98,41 %
19.12.2015 03:35 5,6 C 99 % 1026,3 hPa 0,0 l/m 5,3 km/h (1 Bft) O-NO 74 0 min 0,000 mm 0,0 UV-I 0 W/m 5,5 C 5,6 C 8,0 km/h (2 Bft) 99,15 %
19.12.2015 03:40 5,7 C 99 % 1026,3 hPa 0,0 l/m 4,1 km/h (1 Bft) O-NO 70 0 min 0,000 mm 0,0 UV-I 0 W/m 5,6 C 5,7 C 6,4 km/h (2 Bft) 100,00 %
19.12.2015 03:45 5,3 C 99 % 1026,2 hPa 0,0 l/m 3,9 km/h (1 Bft) O 89 0 min 0,000 mm 0,0 UV-I 0 W/m 5,2 C 5,3 C 8,0 km/h (2 Bft) 99,15 %
19.12.2015 03:50 5,3 C 99 % 1026,2 hPa 0,0 l/m 4,3 km/h (1 Bft) O-SO 118 0 min 0,000 mm 0,0 UV-I 0 W/m 5,2 C 5,3 C 9,7 km/h (2 Bft) 98,39 %
19.12.2015 03:55 5,7 C 99 % 1026,2 hPa 0,0 l/m 6,7 km/h (2 Bft) O 100 0 min 0,000 mm 0,0 UV-I 0 W/m 5,6 C 5,5 C 11,3 km/h (2 Bft) 99,15 %
19.12.2015 04:00 5,7 C 99 % 1026,3 hPa 0,0 l/m 4,3 km/h (1 Bft) SO 132 0 min 0,000 mm 0,0 UV-I 0 W/m 5,6 C 5,7 C 11,3 km/h (2 Bft) 100,00 %
19.12.2015 04:05 5,4 C 99 % 1026,3 hPa 0,0 l/m 2,4 km/h (1 Bft) S-SO 157 0 min 0,000 mm 0,0 UV-I 0 W/m 5,3 C 5,4 C 8,0 km/h (2 Bft) 98,84 %
19.12.2015 04:10 5,2 C 99 % 1026,3 hPa 0,0 l/m 3,6 km/h (1 Bft) O 101 0 min 0,000 mm 0,0 UV-I 0 W/m 5,1 C 5,2 C 9,7 km/h (2 Bft) 100,00 %
19.12.2015 04:15 5,3 C 99 % 1026,3 hPa 0,0 l/m 4,7 km/h (1 Bft) O-SO 107 0 min 0,000 mm 0,0 UV-I 0 W/m 5,2 C 5,3 C 6,4 km/h (2 Bft) 98,17 %
19.12.2015 04:20 5,2 C 99 % 1026,2 hPa 0,0 l/m 3,1 km/h (1 Bft) O 96 0 min 0,000 mm 0,0 UV-I 0 W/m 5,1 C 5,2 C 6,4 km/h (2 Bft) 99,17 %
19.12.2015 04:25 5,1 C 99 % 1026,2 hPa 0,0 l/m 1,8 km/h (1 Bft) SO 137 0 min 0,000 mm 0,0 UV-I 0 W/m 5,0 C 5,1 C 6,4 km/h (2 Bft) 97,39 %
19.12.2015 04:30 5,1 C 99 % 1026,2 hPa 0,0 l/m 2,5 km/h (1 Bft) SO 139 0 min 0,000 mm 0,0 UV-I 0 W/m 5,0 C 5,1 C 6,4 km/h (2 Bft) 100,00 %
19.12.2015 04:35 4,9 C 99 % 1026,2 hPa 0,0 l/m 1,5 km/h (1 Bft) SO 140 0 min 0,000 mm 0,0 UV-I 0 W/m 4,8 C 4,9 C 4,8 km/h (1 Bft) 98,45 %
19.12.2015 04:40 4,6 C 99 % 1026,2 hPa 0,0 l/m 2,6 km/h (1 Bft) S-SO 150 0 min 0,000 mm 0,0 UV-I 0 W/m 4,5 C 4,6 C 4,8 km/h (1 Bft) 97,32 %
19.12.2015 04:45 4,7 C 99 % 1026,1 hPa 0,0 l/m 2,0 km/h (1 Bft) S-SO 149 0 min 0,000 mm 0,0 UV-I 0 W/m 4,6 C 4,7 C 4,8 km/h (1 Bft) 96,77 %
19.12.2015 04:50 4,7 C 99 % 1026,1 hPa 0,0 l/m 1,0 km/h (0 Bft) S-SO 148 0 min 0,000 mm 0,0 UV-I 0 W/m 4,6 C 4,7 C 3,2 km/h (1 Bft) 96,08 %
19.12.2015 04:55 4,6 C 99 % 1026,0 hPa 0,0 l/m 0,5 km/h (0 Bft) S-SO 148 0 min 0,000 mm 0,0 UV-I 0 W/m 4,5 C 4,6 C 3,2 km/h (1 Bft) 96,92 %
19.12.2015 05:00 4,4 C 99 % 1026,0 hPa 0,0 l/m 0,5 km/h (0 Bft) S-SO 148 0 min 0,000 mm 0,0 UV-I 0 W/m 4,3 C 4,4 C 3,2 km/h (1 Bft) 95,54 %
19.12.2015 05:05 4,1 C 99 % 1026,0 hPa 0,0 l/m 0,7 km/h (0 Bft) S-SO 148 0 min 0,000 mm 0,0 UV-I 0 W/m 4,0 C 4,1 C 3,2 km/h (1 Bft) 96,40 %
19.12.2015 05:10 3,8 C 99 % 1026,0 hPa 0,0 l/m 0,8 km/h (0 Bft) S-SO 148 0 min 0,000 mm 0,0 UV-I 0 W/m 3,7 C 3,8 C 3,2 km/h (1 Bft) 97,58 %
19.12.2015 05:15 3,8 C 99 % 1026,0 hPa 0,0 l/m 0,6 km/h (0 Bft) S-SO 148 0 min 0,000 mm 0,0 UV-I 0 W/m 3,7 C 3,8 C 1,6 km/h (1 Bft) 98,00 %
19.12.2015 05:20 3,6 C 99 % 1026,0 hPa 0,0 l/m 0,2 km/h (0 Bft) S-SO 148 0 min 0,000 mm 0,0 UV-I 0 W/m 3,5 C 3,6 C 1,6 km/h (1 Bft) 99,29 %
19.12.2015 05:25 3,5 C 99 % 1026,1 hPa 0,0 l/m 0,0 km/h (0 Bft) S-SO 148 0 min 0,000 mm 0,0 UV-I 0 W/m 3,4 C 3,5 C 1,6 km/h (1 Bft) 99,08 %
19.12.2015 05:30 3,4 C 99 % 1026,0 hPa 0,0 l/m 0,1 km/h (0 Bft) S-SO 148 0 min 0,000 mm 0,0 UV-I 0 W/m 3,3 C 3,4 C 1,6 km/h (1 Bft) 100,00 %
19.12.2015 05:35 3,4 C 99 % 1026,0 hPa 0,0 l/m 0,0 km/h (0 Bft) S-SO 148 0 min 0,000 mm 0,0 UV-I 0 W/m 3,3 C 3,4 C 0,0 km/h (0 Bft) 98,26 %
19.12.2015 05:40 3,4 C 99 % 1026,0 hPa 0,2 l/m 0,0 km/h (0 Bft) S-SO 148 0 min 0,000 mm 0,0 UV-I 0 W/m 3,3 C 3,4 C 0,0 km/h (0 Bft) 100,00 %
19.12.2015 05:45 3,4 C 99 % 1026,1 hPa 0,0 l/m 0,0 km/h (0 Bft) S-SO 148 0 min 0,000 mm 0,0 UV-I 0 W/m 3,3 C 3,4 C 0,0 km/h (0 Bft) 98,37 %
19.12.2015 05:50 3,3 C 99 % 1026,1 hPa 0,0 l/m 0,1 km/h (0 Bft) S-SO 148 0 min 0,000 mm 0,0 UV-I 0 W/m 3,2 C 3,3 C 1,6 km/h (1 Bft) 98,21 %
19.12.2015 05:55 3,3 C 99 % 1026,1 hPa 0,0 l/m 0,7 km/h (0 Bft) N 351 0 min 0,000 mm 0,0 UV-I 0 W/m 3,2 C 3,3 C 3,2 km/h (1 Bft) 100,00 %
19.12.2015 06:00 3,3 C 99 % 1026,2 hPa 0,0 l/m 0,5 km/h (0 Bft) N 355 0 min 0,000 mm 0,0 UV-I 0 W/m 3,2 C 3,3 C 1,6 km/h (1 Bft) 98,26 %
19.12.2015 06:05 3,4 C 99 % 1026,2 hPa 0,0 l/m 0,8 km/h (0 Bft) N 355 0 min 0,000 mm 0,0 UV-I 0 W/m 3,3 C 3,4 C 3,2 km/h (1 Bft) 100,00 %
19.12.2015 06:10 3,3 C 99 % 1026,1 hPa 0,0 l/m 2,6 km/h (1 Bft) N-NO 24 0 min 0,000 mm 0,0 UV-I 0 W/m 3,2 C 3,3 C 4,8 km/h (1 Bft) 97,94 %
19.12.2015 06:15 3,3 C 99 % 1026,1 hPa 0,0 l/m 3,6 km/h (1 Bft) N-NO 24 0 min 0,000 mm 0,0 UV-I 0 W/m 3,2 C 3,3 C 4,8 km/h (1 Bft) 99,26 %
19.12.2015 06:20 3,4 C 99 % 1026,1 hPa 0,0 l/m 0,9 km/h (0 Bft) N-NO 14 0 min 0,000 mm 0,0 UV-I 0 W/m 3,3 C 3,4 C 3,2 km/h (1 Bft) 99,06 %
19.12.2015 06:25 3,4 C 99 % 1026,1 hPa 0,0 l/m 0,2 km/h (0 Bft) N-NO 14 0 min 0,000 mm 0,0 UV-I 0 W/m 3,3 C 3,4 C 3,2 km/h (1 Bft) 100,00 %
19.12.2015 06:30 3,4 C 99 % 1026,1 hPa 0,0 l/m 0,0 km/h (0 Bft) N-NO 14 0 min 0,000 mm 0,0 UV-I 0 W/m 3,3 C 3,4 C 0,0 km/h (0 Bft) 98,25 %
19.12.2015 06:35 3,4 C 99 % 1026,2 hPa 0,0 l/m 0,6 km/h (0 Bft) N-NO 14 0 min 0,000 mm 0,0 UV-I 0 W/m 3,3 C 3,4 C 1,6 km/h (1 Bft) 97,62 %
19.12.2015 06:40 3,5 C 99 % 1026,2 hPa 0,0 l/m 0,3 km/h (0 Bft) N-NO 14 0 min 0,000 mm 0,0 UV-I 0 W/m 3,4 C 3,5 C 1,6 km/h (1 Bft) 97,17 %
19.12.2015 06:45 3,5 C 99 % 1026,2 hPa 0,0 l/m 0,0 km/h (0 Bft) N-NO 14 0 min 0,000 mm 0,0 UV-I 0 W/m 3,4 C 3,5 C 1,6 km/h (1 Bft) 97,69 %
19.12.2015 06:50 3,5 C 99 % 1026,2 hPa 0,0 l/m 0,0 km/h (0 Bft) N-NO 14 0 min 0,000 mm 0,0 UV-I 0 W/m 3,4 C 3,5 C 0,0 km/h (0 Bft) 95,50 %
19.12.2015 06:55 3,6 C 99 % 1026,1 hPa 0,0 l/m 1,0 km/h (0 Bft) O-NO 59 0 min 0,000 mm 0,0 UV-I 0 W/m 3,5 C 3,6 C 3,2 km/h (1 Bft) 97,39 %
19.12.2015 07:00 3,6 C 99 % 1026,2 hPa 0,0 l/m 0,9 km/h (0 Bft) O-SO 116 0 min 0,000 mm 0,0 UV-I 0 W/m 3,5 C 3,6 C 3,2 km/h (1 Bft) 97,39 %
19.12.2015 07:05 3,6 C 99 % 1026,3 hPa 0,0 l/m 1,3 km/h (1 Bft) O-SO 121 0 min 0,000 mm 0,0 UV-I 0 W/m 3,5 C 3,6 C 3,2 km/h (1 Bft) 96,83 %
19.12.2015 07:10 3,6 C 99 % 1026,3 hPa 0,0 l/m 0,2 km/h (0 Bft) O-SO 121 0 min 0,000 mm 0,0 UV-I 0 W/m 3,5 C 3,6 C 3,2 km/h (1 Bft) 97,32 %
19.12.2015 07:15 3,6 C 99 % 1026,4 hPa 0,0 l/m 0,1 km/h (0 Bft) O-SO 121 0 min 0,000 mm 0,0 UV-I 0 W/m 3,5 C 3,6 C 1,6 km/h (1 Bft) 97,50 %
19.12.2015 07:20 3,6 C 99 % 1026,3 hPa 0,0 l/m 0,0 km/h (0 Bft) O-SO 121 0 min 0,000 mm 0,0 UV-I 0 W/m 3,5 C 3,6 C 1,6 km/h (1 Bft) 99,08 %
19.12.2015 07:25 3,6 C 99 % 1026,4 hPa 0,0 l/m 1,3 km/h (1 Bft) O-SO 121 0 min 0,000 mm 0,0 UV-I 0 W/m 3,5 C 3,6 C 3,2 km/h (1 Bft) 99,20 %
19.12.2015 07:30 3,6 C 99 % 1026,3 hPa 0,0 l/m 1,6 km/h (1 Bft) O-SO 121 0 min 0,000 mm 0,0 UV-I 0 W/m 3,5 C 3,6 C 3,2 km/h (1 Bft) 100,00 %
19.12.2015 07:35 3,6 C 99 % 1026,3 hPa 0,0 l/m 2,6 km/h (1 Bft) S-SO 157 0 min 0,000 mm 0,0 UV-I 0 W/m 3,5 C 3,6 C 4,8 km/h (1 Bft) 99,17 %
19.12.2015 07:40 3,6 C 99 % 1026,3 hPa 0,0 l/m 2,6 km/h (1 Bft) S 180 0 min 0,000 mm 0,0 UV-I 0 W/m 3,5 C 3,6 C 4,8 km/h (1 Bft) 99,08 %
19.12.2015 07:45 3,5 C 99 % 1026,5 hPa 0,0 l/m 2,7 km/h (1 Bft) S-SW 203 0 min 0,000 mm 0,0 UV-I 0 W/m 3,4 C 3,5 C 4,8 km/h (1 Bft) 97,56 %
19.12.2015 07:50 3,5 C 99 % 1026,5 hPa 0,0 l/m 2,4 km/h (1 Bft) S-SW 201 0 min 0,000 mm 0,0 UV-I 0 W/m 3,4 C 3,5 C 4,8 km/h (1 Bft) 98,35 %
19.12.2015 07:55 3,5 C 99 % 1026,7 hPa 0,0 l/m 1,5 km/h (1 Bft) S-SW 201 0 min 0,000 mm 0,0 UV-I 0 W/m 3,4 C 3,5 C 3,2 km/h (1 Bft) 98,11 %
19.12.2015 08:00 3,5 C 99 % 1026,7 hPa 0,0 l/m 0,1 km/h (0 Bft) S-SW 201 0 min 0,000 mm 0,0 UV-I 4 W/m 3,4 C 3,5 C 1,6 km/h (1 Bft) 99,22 %
19.12.2015 08:05 3,6 C 99 % 1026,8 hPa 0,0 l/m 0,0 km/h (0 Bft) S-SW 201 0 min 0,000 mm 0,0 UV-I 6 W/m 3,5 C 3,6 C 0,0 km/h (0 Bft) 100,00 %
19.12.2015 08:10 3,6 C 99 % 1026,9 hPa 0,0 l/m 0,4 km/h (0 Bft) S-SW 201 0 min 0,000 mm 0,0 UV-I 9 W/m 3,5 C 3,6 C 3,2 km/h (1 Bft) 100,00 %
19.12.2015 08:15 3,6 C 99 % 1026,8 hPa 0,0 l/m 0,3 km/h (0 Bft) S-SW 201 0 min 0,000 mm 0,0 UV-I 11 W/m 3,5 C 3,6 C 3,2 km/h (1 Bft) 99,08 %
19.12.2015 08:20 3,6 C 99 % 1026,8 hPa 0,0 l/m 1,1 km/h (1 Bft) S-SW 201 0 min 0,000 mm 0,0 UV-I 13 W/m 3,5 C 3,6 C 1,6 km/h (1 Bft) 100,00 %
19.12.2015 08:30 3,6 C 99 % 1026,9 hPa 0,0 l/m 0,5 km/h (0 Bft) S-SW 201 0 min 0,000 mm 0,0 UV-I 21 W/m 3,5 C 3,6 C 1,6 km/h (1 Bft) 99,30 %
19.12.2015 08:35 3,6 C 99 % 1026,9 hPa 0,0 l/m 0,1 km/h (0 Bft) S-SW 201 0 min 0,000 mm 0,0 UV-I 23 W/m 3,5 C 3,6 C 1,6 km/h (1 Bft) 100,00 %
19.12.2015 08:45 3,7 C 99 % 1027,0 hPa 0,0 l/m 2,3 km/h (1 Bft) S 172 0 min 0,000 mm 0,0 UV-I 26 W/m 3,6 C 3,7 C 4,8 km/h (1 Bft) 97,58 %
19.12.2015 08:50 3,8 C 99 % 1027,0 hPa 0,0 l/m 1,7 km/h (1 Bft) S 174 0 min 0,000 mm 0,0 UV-I 26 W/m 3,7 C 3,8 C 4,8 km/h (1 Bft) 96,58 %
19.12.2015 08:55 3,7 C 99 % 1027,0 hPa 0,0 l/m 1,5 km/h (1 Bft) S 182 0 min 0,000 mm 0,0 UV-I 31 W/m 3,6 C 3,7 C 3,2 km/h (1 Bft) 98,21 %
19.12.2015 09:00 3,7 C 99 % 1027,0 hPa 0,0 l/m 2,4 km/h (1 Bft) S 181 0 min 0,000 mm 0,0 UV-I 34 W/m 3,6 C 3,7 C 3,2 km/h (1 Bft) 97,39 %
19.12.2015 09:05 3,8 C 99 % 1027,0 hPa 0,0 l/m 2,1 km/h (1 Bft) S 180 0 min 0,000 mm 0,0 UV-I 35 W/m 3,7 C 3,8 C 3,2 km/h (1 Bft) 95,24 %
19.12.2015 09:10 3,8 C 99 % 1027,0 hPa 0,0 l/m 1,1 km/h (1 Bft) S 180 0 min 0,000 mm 0,0 UV-I 34 W/m 3,7 C 3,8 C 3,2 km/h (1 Bft) 96,52 %
19.12.2015 09:15 3,9 C 99 % 1027,0 hPa 0,0 l/m 0,3 km/h (0 Bft) S 180 0 min 0,000 mm 0,0 UV-I 38 W/m 3,8 C 3,9 C 1,6 km/h (1 Bft) 96,58 %
19.12.2015 09:20 4,1 C 99 % 1026,9 hPa 0,0 l/m 2,7 km/h (1 Bft) S 188 0 min 0,000 mm 0,0 UV-I 41 W/m 4,0 C 4,1 C 4,8 km/h (1 Bft) 98,35 %
19.12.2015 09:25 4,1 C 99 % 1027,0 hPa 0,0 l/m 2,7 km/h (1 Bft) W-SW 251 0 min 0,000 mm 0,0 UV-I 45 W/m 4,0 C 4,1 C 4,8 km/h (1 Bft) 99,15 %
19.12.2015 09:30 4,0 C 99 % 1027,0 hPa 0,0 l/m 3,5 km/h (1 Bft) W-SW 240 0 min 0,000 mm 0,0 UV-I 45 W/m 3,9 C 4,0 C 6,4 km/h (2 Bft) 99,02 %
19.12.2015 09:35 4,1 C 99 % 1026,9 hPa 0,0 l/m 1,8 km/h (1 Bft) W-SW 240 0 min 0,000 mm 0,0 UV-I 44 W/m 4,0 C 4,1 C 4,8 km/h (1 Bft) 99,22 %
19.12.2015 09:40 4,2 C 99 % 1026,9 hPa 0,0 l/m 1,0 km/h (0 Bft) S-SW 206 0 min 0,000 mm 0,0 UV-I 49 W/m 4,1 C 4,2 C 3,2 km/h (1 Bft) 98,31 %
19.12.2015 09:45 4,3 C 99 % 1027,0 hPa 0,0 l/m 0,1 km/h (0 Bft) S-SW 206 0 min 0,000 mm 0,0 UV-I 58 W/m 4,2 C 4,3 C 1,6 km/h (1 Bft) 100,00 %
19.12.2015 09:50 4,4 C 99 % 1027,0 hPa 0,0 l/m 0,3 km/h (0 Bft) S-SW 206 0 min 0,000 mm 0,0 UV-I 61 W/m 4,3 C 4,4 C 1,6 km/h (1 Bft) 100,00 %
19.12.2015 09:55 4,6 C 99 % 1027,0 hPa 0,0 l/m 0,1 km/h (0 Bft) S-SW 206 0 min 0,000 mm 0,0 UV-I 65 W/m 4,5 C 4,6 C 1,6 km/h (1 Bft) 100,00 %
19.12.2015 10:00 4,6 C 99 % 1027,1 hPa 0,0 l/m 0,0 km/h (0 Bft) S-SW 206 0 min 0,000 mm 0,0 UV-I 67 W/m 4,5 C 4,6 C 1,6 km/h (1 Bft) 99,08 %
19.12.2015 10:05 4,7 C 99 % 1027,1 hPa 0,0 l/m 0,2 km/h (0 Bft) S-SW 206 0 min 0,025 mm 0,0 UV-I 70 W/m 4,6 C 4,7 C 1,6 km/h (1 Bft) 99,15 %
19.12.2015 10:10 4,6 C 99 % 1027,1 hPa 0,0 l/m 0,5 km/h (0 Bft) S-SW 209 0 min 0,000 mm 0,0 UV-I 66 W/m 4,5 C 4,6 C 3,2 km/h (1 Bft) 100,00 %
19.12.2015 10:15 4,7 C 99 % 1027,1 hPa 0,0 l/m 0,0 km/h (0 Bft) S-SW 209 0 min 0,000 mm 0,0 UV-I 73 W/m 4,6 C 4,7 C 0,0 km/h (0 Bft) 100,00 %
19.12.2015 10:20 4,8 C 99 % 1027,1 hPa 0,0 l/m 0,1 km/h (0 Bft) S-SW 209 0 min 0,000 mm 0,0 UV-I 75 W/m 4,7 C 4,8 C 1,6 km/h (1 Bft) 99,19 %
19.12.2015 10:25 4,9 C 99 % 1027,3 hPa 0,0 l/m 0,3 km/h (0 Bft) SW 234 0 min 0,000 mm 0,0 UV-I 77 W/m 4,8 C 4,9 C 1,6 km/h (1 Bft) 98,25 %
19.12.2015 10:30 4,9 C 99 % 1027,3 hPa 0,0 l/m 0,9 km/h (0 Bft) W-NW 302 0 min 0,000 mm 0,0 UV-I 71 W/m 4,8 C 4,9 C 3,2 km/h (1 Bft) 99,19 %
19.12.2015 10:35 5,0 C 99 % 1027,1 hPa 0,0 l/m 0,1 km/h (0 Bft) W-NW 302 0 min 0,000 mm 0,0 UV-I 71 W/m 4,9 C 5,0 C 1,6 km/h (1 Bft) 99,12 %
19.12.2015 10:40 5,1 C 99 % 1027,0 hPa 0,0 l/m 0,2 km/h (0 Bft) W-NW 302 0 min 0,000 mm 0,0 UV-I 77 W/m 5,0 C 5,1 C 1,6 km/h (1 Bft) 100,00 %
19.12.2015 10:45 5,2 C 99 % 1026,9 hPa 0,0 l/m 0,0 km/h (0 Bft) W-NW 302 0 min 0,000 mm 0,0 UV-I 82 W/m 5,1 C 5,2 C 0,0 km/h (0 Bft) 97,46 %
19.12.2015 10:50 5,3 C 99 % 1026,9 hPa 0,0 l/m 0,2 km/h (0 Bft) N 355 0 min 0,000 mm 0,0 UV-I 83 W/m 5,2 C 5,3 C 3,2 km/h (1 Bft) 98,15 %
19.12.2015 10:55 5,5 C 99 % 1026,8 hPa 0,0 l/m 1,6 km/h (1 Bft) N 5 0 min 0,000 mm 0,0 UV-I 85 W/m 5,4 C 5,5 C 4,8 km/h (1 Bft) 95,04 %
19.12.2015 11:00 5,5 C 99 % 1026,8 hPa 0,0 l/m 0,3 km/h (0 Bft) N 360 0 min 0,000 mm 0,0 UV-I 86 W/m 5,4 C 5,5 C 1,6 km/h (1 Bft) 97,52 %
19.12.2015 11:05 5,7 C 99 % 1026,8 hPa 0,0 l/m 1,1 km/h (1 Bft) NO 34 0 min 0,026 mm 0,0 UV-I 88 W/m 5,6 C 5,7 C 4,8 km/h (1 Bft) 97,22 %
19.12.2015 11:10 5,7 C 99 % 1026,8 hPa 0,0 l/m 0,5 km/h (0 Bft) N-NO 26 0 min 0,000 mm 0,0 UV-I 90 W/m 5,6 C 5,7 C 3,2 km/h (1 Bft) 96,61 %
19.12.2015 11:15 5,8 C 99 % 1026,8 hPa 0,0 l/m 1,7 km/h (1 Bft) N-NO 26 0 min 0,000 mm 0,0 UV-I 97 W/m 5,7 C 5,8 C 3,2 km/h (1 Bft) 97,46 %
19.12.2015 11:20 5,8 C 99 % 1026,8 hPa 0,0 l/m 2,4 km/h (1 Bft) N-NO 24 0 min 0,000 mm 0,0 UV-I 88 W/m 5,7 C 5,8 C 4,8 km/h (1 Bft) 98,33 %
19.12.2015 11:25 5,8 C 99 % 1026,7 hPa 0,0 l/m 1,5 km/h (1 Bft) N-NO 21 0 min 0,000 mm 0,0 UV-I 86 W/m 5,7 C 5,8 C 6,4 km/h (2 Bft) 99,13 %
19.12.2015 11:30 5,8 C 99 % 1026,7 hPa 0,0 l/m 2,9 km/h (1 Bft) NO 44 0 min 0,000 mm 0,0 UV-I 88 W/m 5,7 C 5,8 C 4,8 km/h (1 Bft) 97,37 %
19.12.2015 11:35 5,7 C 99 % 1026,7 hPa 0,0 l/m 0,6 km/h (0 Bft) NO 44 0 min 0,000 mm 0,0 UV-I 85 W/m 5,6 C 5,7 C 3,2 km/h (1 Bft) 100,00 %
19.12.2015 11:40 5,8 C 99 % 1026,5 hPa 0,0 l/m 0,9 km/h (0 Bft) NO 43 0 min 0,000 mm 0,0 UV-I 81 W/m 5,7 C 5,8 C 4,8 km/h (1 Bft) 100,00 %
19.12.2015 11:45 5,7 C 99 % 1026,5 hPa 0,0 l/m 1,2 km/h (1 Bft) NO 43 0 min 0,000 mm 0,0 UV-I 87 W/m 5,6 C 5,7 C 3,2 km/h (1 Bft) 99,10 %
19.12.2015 11:50 5,7 C 99 % 1026,4 hPa 0,0 l/m 0,9 km/h (0 Bft) NO 43 0 min 0,000 mm 0,0 UV-I 88 W/m 5,6 C 5,7 C 3,2 km/h (1 Bft) 99,19 %
19.12.2015 11:55 5,7 C 99 % 1026,3 hPa 0,0 l/m 1,6 km/h (1 Bft) O 92 0 min 0,000 mm 0,0 UV-I 83 W/m 5,6 C 5,7 C 6,4 km/h (2 Bft) 100,00 %
19.12.2015 12:00 5,8 C 99 % 1026,4 hPa 0,0 l/m 2,4 km/h (1 Bft) O-SO 119 0 min 0,000 mm 0,0 UV-I 91 W/m 5,7 C 5,8 C 6,4 km/h (2 Bft) 98,21 %
19.12.2015 12:05 5,8 C 99 % 1026,3 hPa 0,0 l/m 3,7 km/h (1 Bft) O-NO 71 0 min 0,025 mm 0,0 UV-I 91 W/m 5,7 C 5,8 C 6,4 km/h (2 Bft) 98,26 %
19.12.2015 12:10 5,8 C 99 % 1026,3 hPa 0,0 l/m 0,8 km/h (0 Bft) O-NO 71 0 min 0,000 mm 0,0 UV-I 84 W/m 5,7 C 5,8 C 1,6 km/h (1 Bft) 100,00 %
19.12.2015 12:15 6,0 C 99 % 1026,2 hPa 0,0 l/m 1,1 km/h (1 Bft) O-NO 58 0 min 0,000 mm 0,0 UV-I 76 W/m 5,9 C 6,0 C 4,8 km/h (1 Bft) 99,15 %
19.12.2015 12:20 6,1 C 99 % 1026,2 hPa 0,0 l/m 0,6 km/h (0 Bft) O-NO 58 0 min 0,000 mm 0,0 UV-I 73 W/m 6,0 C 6,1 C 3,2 km/h (1 Bft) 100,00 %
19.12.2015 12:25 6,0 C 99 % 1026,2 hPa 0,0 l/m 0,2 km/h (0 Bft) O-NO 58 0 min 0,000 mm 0,0 UV-I 72 W/m 5,9 C 6,0 C 1,6 km/h (1 Bft) 100,00 %
19.12.2015 12:30 5,9 C 99 % 1026,0 hPa 0,0 l/m 0,3 km/h (0 Bft) O-NO 58 0 min 0,000 mm 0,0 UV-I 73 W/m 5,8 C 5,9 C 1,6 km/h (1 Bft) 100,00 %
19.12.2015 12:35 6,0 C 99 % 1026,1 hPa 0,0 l/m 0,8 km/h (0 Bft) N-NW 338 0 min 0,000 mm 0,0 UV-I 75 W/m 5,9 C 6,0 C 3,2 km/h (1 Bft) 99,11 %
19.12.2015 12:40 6,0 C 99 % 1025,9 hPa 0,0 l/m 0,7 km/h (0 Bft) N-NW 335 0 min 0,000 mm 0,0 UV-I 75 W/m 5,9 C 6,0 C 3,2 km/h (1 Bft) 100,00 %
19.12.2015 12:45 6,1 C 99 % 1025,9 hPa 0,0 l/m 0,4 km/h (0 Bft) N-NW 335 0 min 0,000 mm 0,0 UV-I 74 W/m 6,0 C 6,1 C 3,2 km/h (1 Bft) 98,31 %
19.12.2015 12:50 6,1 C 99 % 1025,9 hPa 0,0 l/m 0,3 km/h (0 Bft) N-NW 335 0 min 0,000 mm 0,0 UV-I 74 W/m 6,0 C 6,1 C 1,6 km/h (1 Bft) 97,44 %
19.12.2015 12:55 6,0 C 99 % 1025,9 hPa 0,0 l/m 1,0 km/h (0 Bft) NW 324 0 min 0,000 mm 0,0 UV-I 69 W/m 5,9 C 6,0 C 3,2 km/h (1 Bft) 94,85 %
19.12.2015 13:00 6,1 C 99 % 1025,9 hPa 0,0 l/m 1,2 km/h (1 Bft) NW 320 0 min 0,026 mm 0,0 UV-I 62 W/m 6,0 C 6,1 C 3,2 km/h (1 Bft) 97,89 %
19.12.2015 13:05 6,1 C 99 % 1025,7 hPa 0,0 l/m 0,4 km/h (0 Bft) NW 315 0 min 0,000 mm 0,0 UV-I 61 W/m 6,0 C 6,1 C 1,6 km/h (1 Bft) 96,58 %
19.12.2015 13:10 6,1 C 99 % 1025,7 hPa 0,0 l/m 0,7 km/h (0 Bft) NW 324 0 min 0,000 mm 0,0 UV-I 72 W/m 6,0 C 6,1 C 3,2 km/h (1 Bft) 97,46 %
19.12.2015 13:15 6,1 C 99 % 1025,6 hPa 0,0 l/m 0,4 km/h (0 Bft) NW 324 0 min 0,000 mm 0,0 UV-I 79 W/m 6,0 C 6,1 C 3,2 km/h (1 Bft) 96,58 %
19.12.2015 13:20 6,1 C 99 % 1025,6 hPa 0,0 l/m 0,7 km/h (0 Bft) NW 324 0 min 0,000 mm 0,0 UV-I 74 W/m 6,0 C 6,1 C 1,6 km/h (1 Bft) 98,11 %
19.12.2015 13:25 6,1 C 99 % 1025,6 hPa 0,0 l/m 0,0 km/h (0 Bft) NW 324 0 min 0,000 mm 0,0 UV-I 78 W/m 6,0 C 6,1 C 1,6 km/h (1 Bft) 98,39 %
19.12.2015 13:30 6,0 C 99 % 1025,5 hPa 0,0 l/m 0,0 km/h (0 Bft) NW 324 0 min 0,000 mm 0,0 UV-I 80 W/m 5,9 C 6,0 C 0,0 km/h (0 Bft) 99,15 %
19.12.2015 13:35 6,1 C 99 % 1025,4 hPa 0,0 l/m 0,3 km/h (0 Bft) NW 324 0 min 0,000 mm 0,0 UV-I 85 W/m 6,0 C 6,1 C 1,6 km/h (1 Bft) 98,31 %
19.12.2015 13:40 6,1 C 99 % 1025,4 hPa 0,0 l/m 2,8 km/h (1 Bft) O-NO 68 0 min 0,000 mm 0,0 UV-I 84 W/m 6,0 C 6,1 C 4,8 km/h (1 Bft) 100,00 %
19.12.2015 13:45 6,1 C 99 % 1025,4 hPa 0,0 l/m 1,2 km/h (1 Bft) O-NO 69 0 min 0,000 mm 0,0 UV-I 77 W/m 6,0 C 6,1 C 3,2 km/h (1 Bft) 97,39 %
19.12.2015 13:50 6,2 C 99 % 1025,4 hPa 0,0 l/m 0,8 km/h (0 Bft) O-NO 69 0 min 0,000 mm 0,0 UV-I 73 W/m 6,1 C 6,2 C 3,2 km/h (1 Bft) 99,17 %
19.12.2015 13:55 6,2 C 99 % 1025,4 hPa 0,0 l/m 1,0 km/h (0 Bft) O-NO 72 0 min 0,000 mm 0,0 UV-I 72 W/m 6,1 C 6,2 C 3,2 km/h (1 Bft) 100,00 %
19.12.2015 14:00 6,2 C 99 % 1025,4 hPa 0,0 l/m 1,0 km/h (0 Bft) O-NO 71 0 min 0,025 mm 0,0 UV-I 67 W/m 6,1 C 6,2 C 3,2 km/h (1 Bft) 98,45 %
19.12.2015 14:05 6,2 C 99 % 1025,3 hPa 0,0 l/m 1,0 km/h (0 Bft) O 96 0 min 0,000 mm 0,0 UV-I 64 W/m 6,1 C 6,2 C 3,2 km/h (1 Bft) 99,06 %
19.12.2015 14:10 6,2 C 99 % 1025,3 hPa 0,0 l/m 1,6 km/h (1 Bft) O-SO 109 0 min 0,000 mm 0,0 UV-I 58 W/m 6,1 C 6,2 C 4,8 km/h (1 Bft) 99,17 %
19.12.2015 14:15 6,2 C 99 % 1025,3 hPa 0,0 l/m 0,3 km/h (0 Bft) O-SO 109 0 min 0,000 mm 0,0 UV-I 48 W/m 6,1 C 6,2 C 1,6 km/h (1 Bft) 99,13 %
19.12.2015 14:20 6,3 C 99 % 1025,2 hPa 0,0 l/m 1,6 km/h (1 Bft) O-NO 76 0 min 0,000 mm 0,0 UV-I 44 W/m 6,2 C 6,3 C 4,8 km/h (1 Bft) 98,31 %
19.12.2015 14:25 6,3 C 99 % 1025,2 hPa 0,0 l/m 2,8 km/h (1 Bft) NO 55 0 min 0,000 mm 0,0 UV-I 41 W/m 6,2 C 6,3 C 4,8 km/h (1 Bft) 98,41 %
19.12.2015 14:30 6,4 C 99 % 1025,2 hPa 0,0 l/m 2,7 km/h (1 Bft) O-NO 67 0 min 0,000 mm 0,0 UV-I 38 W/m 6,3 C 6,4 C 4,8 km/h (1 Bft) 100,00 %
19.12.2015 14:35 6,4 C 99 % 1025,1 hPa 0,0 l/m 2,1 km/h (1 Bft) NO 40 0 min 0,000 mm 0,0 UV-I 38 W/m 6,3 C 6,4 C 4,8 km/h (1 Bft) 100,00 %
19.12.2015 14:40 6,3 C 99 % 1025,2 hPa 0,0 l/m 0,5 km/h (0 Bft) NO 40 0 min 0,000 mm 0,0 UV-I 37 W/m 6,2 C 6,3 C 3,2 km/h (1 Bft) 100,00 %
19.12.2015 14:45 6,4 C 99 % 1025,2 hPa 0,0 l/m 0,0 km/h (0 Bft) NO 40 0 min 0,000 mm 0,0 UV-I 35 W/m 6,3 C 6,4 C 1,6 km/h (1 Bft) 100,00 %
19.12.2015 14:50 6,4 C 99 % 1025,3 hPa 0,0 l/m 0,2 km/h (0 Bft) NO 40 0 min 0,000 mm 0,0 UV-I 32 W/m 6,3 C 6,4 C 1,6 km/h (1 Bft) 99,07 %
19.12.2015 14:55 6,4 C 99 % 1025,3 hPa 0,0 l/m 0,2 km/h (0 Bft) NO 40 0 min 0,000 mm 0,0 UV-I 28 W/m 6,3 C 6,4 C 3,2 km/h (1 Bft) 100,00 %
19.12.2015 15:00 6,4 C 99 % 1025,3 hPa 0,0 l/m 0,7 km/h (0 Bft) NO 40 0 min 0,025 mm 0,0 UV-I 22 W/m 6,3 C 6,4 C 3,2 km/h (1 Bft) 96,61 %
19.12.2015 15:05 6,3 C 99 % 1025,4 hPa 0,0 l/m 1,4 km/h (1 Bft) NO 40 0 min 0,000 mm 0,0 UV-I 19 W/m 6,2 C 6,3 C 3,2 km/h (1 Bft) 97,37 %
19.12.2015 15:10 6,3 C 99 % 1025,4 hPa 0,0 l/m 0,7 km/h (0 Bft) NO 40 0 min 0,000 mm 0,0 UV-I 22 W/m 6,2 C 6,3 C 3,2 km/h (1 Bft) 97,32 %
19.12.2015 15:15 6,3 C 99 % 1025,4 hPa 0,0 l/m 0,7 km/h (0 Bft) NO 40 0 min 0,000 mm 0,0 UV-I 20 W/m 6,2 C 6,3 C 3,2 km/h (1 Bft) 97,39 %
19.12.2015 15:20 6,3 C 99 % 1025,4 hPa 0,0 l/m 0,0 km/h (0 Bft) NO 40 0 min 0,000 mm 0,0 UV-I 14 W/m 6,2 C 6,3 C 0,0 km/h (0 Bft) 97,56 %
19.12.2015 15:25 6,3 C 99 % 1025,4 hPa 0,0 l/m 0,0 km/h (0 Bft) NO 40 0 min 0,000 mm 0,0 UV-I 13 W/m 6,2 C 6,3 C 1,6 km/h (1 Bft) 96,91 %
19.12.2015 15:30 6,3 C 99 % 1025,4 hPa 0,0 l/m 0,1 km/h (0 Bft) NO 40 0 min 0,000 mm 0,0 UV-I 11 W/m 6,2 C 6,3 C 1,6 km/h (1 Bft) 96,45 %
19.12.2015 15:35 6,3 C 99 % 1025,4 hPa 0,0 l/m 3,0 km/h (1 Bft) NO 40 0 min 0,000 mm 0,0 UV-I 11 W/m 6,2 C 6,3 C 4,8 km/h (1 Bft) 99,13 %
19.12.2015 15:40 6,3 C 99 % 1025,4 hPa 0,0 l/m 1,1 km/h (1 Bft) NO 40 0 min 0,000 mm 0,0 UV-I 9 W/m 6,2 C 6,3 C 3,2 km/h (1 Bft) 100,00 %
19.12.2015 15:45 6,4 C 99 % 1025,5 hPa 0,0 l/m 0,3 km/h (0 Bft) NO 40 0 min 0,000 mm 0,0 UV-I 8 W/m 6,3 C 6,4 C 3,2 km/h (1 Bft) 98,20 %
19.12.2015 15:50 6,3 C 99 % 1025,4 hPa 0,0 l/m 0,3 km/h (0 Bft) NO 40 0 min 0,000 mm 0,0 UV-I 7 W/m 6,2 C 6,3 C 1,6 km/h (1 Bft) 100,00 %
19.12.2015 15:55 6,3 C 99 % 1025,3 hPa 0,0 l/m 3,7 km/h (1 Bft) O-NO 71 0 min 0,000 mm 0,0 UV-I 7 W/m 6,2 C 6,3 C 6,4 km/h (2 Bft) 99,00 %
19.12.2015 16:00 6,2 C 99 % 1025,3 hPa 0,0 l/m 4,7 km/h (1 Bft) NO 44 0 min 0,000 mm 0,0 UV-I 5 W/m 6,1 C 6,2 C 6,4 km/h (2 Bft) 98,41 %
19.12.2015 16:05 6,2 C 99 % 1025,4 hPa 0,0 l/m 2,8 km/h (1 Bft) O-NO 69 0 min 0,000 mm 0,0 UV-I 2 W/m 6,1 C 6,2 C 4,8 km/h (1 Bft) 100,00 %
19.12.2015 16:10 6,1 C 99 % 1025,5 hPa 0,0 l/m 4,3 km/h (1 Bft) O-NO 70 0 min 0,000 mm 0,0 UV-I 0 W/m 6,0 C 6,1 C 6,4 km/h (2 Bft) 100,00 %
19.12.2015 16:15 6,1 C 99 % 1025,6 hPa 0,0 l/m 3,6 km/h (1 Bft) O-NO 70 0 min 0,000 mm 0,0 UV-I 0 W/m 6,0 C 6,1 C 6,4 km/h (2 Bft) 100,00 %
19.12.2015 16:20 5,9 C 99 % 1025,6 hPa 0,0 l/m 1,6 km/h (1 Bft) O-NO 70 0 min 0,000 mm 0,0 UV-I 0 W/m 5,8 C 5,9 C 3,2 km/h (1 Bft) 99,08 %
19.12.2015 16:25 5,9 C 99 % 1025,6 hPa 0,0 l/m 1,2 km/h (1 Bft) O-NO 70 0 min 0,000 mm 0,0 UV-I 0 W/m 5,8 C 5,9 C 3,2 km/h (1 Bft) 98,37 %
19.12.2015 16:30 5,9 C 99 % 1025,6 hPa 0,0 l/m 2,0 km/h (1 Bft) O-NO 62 0 min 0,000 mm 0,0 UV-I 0 W/m 5,8 C 5,9 C 4,8 km/h (1 Bft) 98,33 %
19.12.2015 16:35 5,9 C 99 % 1025,7 hPa 0,0 l/m 2,2 km/h (1 Bft) O-NO 62 0 min 0,000 mm 0,0 UV-I 0 W/m 5,8 C 5,9 C 4,8 km/h (1 Bft) 99,11 %
19.12.2015 16:40 5,9 C 99 % 1025,7 hPa 0,0 l/m 1,3 km/h (1 Bft) O-NO 61 0 min 0,000 mm 0,0 UV-I 0 W/m 5,8 C 5,9 C 4,8 km/h (1 Bft) 100,00 %
19.12.2015 16:45 5,9 C 99 % 1025,9 hPa 0,0 l/m 1,9 km/h (1 Bft) O-NO 61 0 min 0,000 mm 0,0 UV-I 0 W/m 5,8 C 5,9 C 4,8 km/h (1 Bft) 100,00 %
19.12.2015 16:50 5,9 C 99 % 1025,9 hPa 0,0 l/m 1,7 km/h (1 Bft) O-NO 61 0 min 0,000 mm 0,0 UV-I 0 W/m 5,8 C 5,9 C 3,2 km/h (1 Bft) 100,00 %
19.12.2015 16:55 5,8 C 99 % 1025,9 hPa 0,0 l/m 0,8 km/h (0 Bft) O-NO 61 0 min 0,000 mm 0,0 UV-I 0 W/m 5,7 C 5,8 C 3,2 km/h (1 Bft) 99,15 %
19.12.2015 17:00 5,8 C 99 % 1025,9 hPa 0,0 l/m 2,4 km/h (1 Bft) O-NO 61 0 min 0,000 mm 0,0 UV-I 0 W/m 5,7 C 5,8 C 3,2 km/h (1 Bft) 96,43 %
19.12.2015 17:05 5,8 C 99 % 1026,0 hPa 0,0 l/m 1,9 km/h (1 Bft) O-NO 61 0 min 0,000 mm 0,0 UV-I 0 W/m 5,7 C 5,8 C 3,2 km/h (1 Bft) 97,56 %
19.12.2015 17:10 5,8 C 99 % 1026,0 hPa 0,0 l/m 2,6 km/h (1 Bft) O-NO 61 0 min 0,000 mm 0,0 UV-I 0 W/m 5,7 C 5,8 C 4,8 km/h (1 Bft) 98,26 %
19.12.2015 17:15 5,8 C 99 % 1026,1 hPa 0,0 l/m 0,5 km/h (0 Bft) O-NO 61 0 min 0,000 mm 0,0 UV-I 0 W/m 5,7 C 5,8 C 1,6 km/h (1 Bft) 97,39 %
19.12.2015 17:20 5,8 C 99 % 1026,0 hPa 0,0 l/m 2,5 km/h (1 Bft) O-NO 61 0 min 0,000 mm 0,0 UV-I 0 W/m 5,7 C 5,8 C 4,8 km/h (1 Bft) 96,58 %
19.12.2015 17:25 5,8 C 99 % 1026,0 hPa 0,0 l/m 2,0 km/h (1 Bft) O-NO 61 0 min 0,000 mm 0,0 UV-I 0 W/m 5,7 C 5,8 C 3,2 km/h (1 Bft) 98,51 %
19.12.2015 17:35 5,7 C 99 % 1026,0 hPa 0,0 l/m 2,4 km/h (1 Bft) O-SO 104 0 min 0,000 mm 0,0 UV-I 0 W/m 5,6 C 5,7 C 4,8 km/h (1 Bft) 96,86 %
19.12.2015 17:40 5,6 C 99 % 1026,1 hPa 0,0 l/m 1,9 km/h (1 Bft) O-NO 78 0 min 0,000 mm 0,0 UV-I 0 W/m 5,5 C 5,6 C 4,8 km/h (1 Bft) 99,21 %
19.12.2015 17:45 5,6 C 99 % 1026,1 hPa 0,0 l/m 2,2 km/h (1 Bft) O-NO 77 0 min 0,000 mm 0,0 UV-I 0 W/m 5,5 C 5,6 C 4,8 km/h (1 Bft) 98,17 %
19.12.2015 17:50 5,6 C 99 % 1026,1 hPa 0,0 l/m 4,0 km/h (1 Bft) O-NO 69 0 min 0,000 mm 0,0 UV-I 0 W/m 5,5 C 5,6 C 8,0 km/h (2 Bft) 99,19 %
19.12.2015 17:55 5,6 C 99 % 1026,1 hPa 0,0 l/m 2,7 km/h (1 Bft) SO 134 0 min 0,000 mm 0,0 UV-I 0 W/m 5,5 C 5,6 C 4,8 km/h (1 Bft) 99,08 %
19.12.2015 18:00 5,6 C 99 % 1026,1 hPa 0,0 l/m 3,6 km/h (1 Bft) O 97 0 min 0,000 mm 0,0 UV-I 0 W/m 5,5 C 5,6 C 6,4 km/h (2 Bft) 100,00 %
19.12.2015 18:05 5,6 C 99 % 1026,2 hPa 0,0 l/m 1,2 km/h (1 Bft) O 97 0 min 0,000 mm 0,0 UV-I 0 W/m 5,5 C 5,6 C 3,2 km/h (1 Bft) 97,52 %
19.12.2015 18:10 5,6 C 99 % 1026,1 hPa 0,0 l/m 1,7 km/h (1 Bft) O-SO 107 0 min 0,000 mm 0,0 UV-I 0 W/m 5,5 C 5,6 C 6,4 km/h (2 Bft) 100,00 %
19.12.2015 18:15 5,6 C 99 % 1026,1 hPa 0,0 l/m 3,5 km/h (1 Bft) O 97 0 min 0,000 mm 0,0 UV-I 0 W/m 5,5 C 5,6 C 6,4 km/h (2 Bft) 100,00 %
19.12.2015 18:20 5,6 C 99 % 1026,1 hPa 0,0 l/m 1,7 km/h (1 Bft) O 97 0 min 0,000 mm 0,0 UV-I 0 W/m 5,5 C 5,6 C 3,2 km/h (1 Bft) 99,17 %
19.12.2015 18:25 5,6 C 99 % 1026,2 hPa 0,0 l/m 3,7 km/h (1 Bft) O-SO 121 0 min 0,000 mm 0,0 UV-I 0 W/m 5,5 C 5,6 C 6,4 km/h (2 Bft) 98,29 %
19.12.2015 18:30 5,5 C 99 % 1026,2 hPa 0,0 l/m 3,6 km/h (1 Bft) O-NO 74 0 min 0,000 mm 0,0 UV-I 0 W/m 5,4 C 5,5 C 9,7 km/h (2 Bft) 98,35 %
19.12.2015 18:35 5,5 C 99 % 1026,2 hPa 0,0 l/m 4,4 km/h (1 Bft) O-NO 64 0 min 0,000 mm 0,0 UV-I 0 W/m 5,4 C 5,5 C 8,0 km/h (2 Bft) 100,00 %
19.12.2015 18:40 5,6 C 99 % 1026,2 hPa 0,0 l/m 4,2 km/h (1 Bft) O-NO 59 0 min 0,000 mm 0,0 UV-I 0 W/m 5,5 C 5,6 C 8,0 km/h (2 Bft) 100,00 %
19.12.2015 18:45 5,6 C 99 % 1026,1 hPa 0,0 l/m 4,1 km/h (1 Bft) O-NO 57 0 min 0,000 mm 0,0 UV-I 0 W/m 5,5 C 5,6 C 8,0 km/h (2 Bft) 100,00 %
19.12.2015 18:50 5,6 C 99 % 1026,1 hPa 0,0 l/m 2,1 km/h (1 Bft) O-NO 59 0 min 0,000 mm 0,0 UV-I 0 W/m 5,5 C 5,6 C 4,8 km/h (1 Bft) 97,41 %
19.12.2015 18:55 5,6 C 99 % 1026,1 hPa 0,0 l/m 2,7 km/h (1 Bft) O 96 0 min 0,000 mm 0,0 UV-I 0 W/m 5,5 C 5,6 C 4,8 km/h (1 Bft) 99,21 %
19.12.2015 19:00 5,6 C 99 % 1026,1 hPa 0,0 l/m 0,9 km/h (0 Bft) O 96 0 min 0,000 mm 0,0 UV-I 0 W/m 5,5 C 5,6 C 3,2 km/h (1 Bft) 100,00 %
19.12.2015 19:05 5,6 C 99 % 1026,1 hPa 0,0 l/m 3,2 km/h (1 Bft) O-NO 69 0 min 0,000 mm 0,0 UV-I 0 W/m 5,5 C 5,6 C 6,4 km/h (2 Bft) 98,37 %
19.12.2015 19:10 5,6 C 99 % 1026,1 hPa 0,0 l/m 3,5 km/h (1 Bft) O-NO 78 0 min 0,000 mm 0,0 UV-I 0 W/m 5,5 C 5,6 C 6,4 km/h (2 Bft) 97,39 %
19.12.2015 19:15 5,6 C 99 % 1026,1 hPa 0,0 l/m 3,6 km/h (1 Bft) NO 44 0 min 0,000 mm 0,0 UV-I 0 W/m 5,5 C 5,6 C 6,4 km/h (2 Bft) 96,61 %
19.12.2015 19:20 5,6 C 99 % 1026,2 hPa 0,0 l/m 3,9 km/h (1 Bft) O-NO 73 0 min 0,000 mm 0,0 UV-I 0 W/m 5,5 C 5,6 C 9,7 km/h (2 Bft) 95,61 %
19.12.2015 19:25 5,6 C 99 % 1026,2 hPa 0,0 l/m 6,2 km/h (2 Bft) NO 41 0 min 0,000 mm 0,0 UV-I 0 W/m 5,5 C 5,6 C 8,0 km/h (2 Bft) 95,76 %
19.12.2015 19:30 5,5 C 99 % 1026,2 hPa 0,0 l/m 6,6 km/h (2 Bft) O-NO 61 0 min 0,000 mm 0,0 UV-I 0 W/m 5,4 C 5,3 C 11,3 km/h (2 Bft) 96,52 %
19.12.2015 19:35 5,4 C 99 % 1026,3 hPa 0,0 l/m 6,7 km/h (2 Bft) O-NO 67 0 min 0,000 mm 0,0 UV-I 0 W/m 5,3 C 5,2 C 8,0 km/h (2 Bft) 100,00 %
19.12.2015 19:40 5,3 C 99 % 1026,3 hPa 0,0 l/m 5,6 km/h (1 Bft) O-NO 69 0 min 0,000 mm 0,0 UV-I 0 W/m 5,2 C 5,3 C 11,3 km/h (2 Bft) 96,69 %
19.12.2015 19:45 5,3 C 99 % 1026,2 hPa 0,0 l/m 5,8 km/h (2 Bft) O-NO 66 0 min 0,000 mm 0,0 UV-I 0 W/m 5,2 C 5,3 C 9,7 km/h (2 Bft) 97,37 %
19.12.2015 19:50 5,2 C 99 % 1026,2 hPa 0,0 l/m 5,4 km/h (1 Bft) O-NO 74 0 min 0,000 mm 0,0 UV-I 0 W/m 5,1 C 5,2 C 8,0 km/h (2 Bft) 98,26 %
19.12.2015 19:55 5,2 C 99 % 1026,2 hPa 0,0 l/m 6,0 km/h (2 Bft) O-NO 76 0 min 0,000 mm 0,0 UV-I 0 W/m 5,1 C 5,2 C 12,9 km/h (3 Bft) 99,17 %
19.12.2015 20:00 5,1 C 99 % 1026,1 hPa 0,0 l/m 9,3 km/h (2 Bft) NO 49 0 min 0,000 mm 0,0 UV-I 0 W/m 5,0 C 2,7 C 14,5 km/h (3 Bft) 100,00 %
19.12.2015 20:05 5,0 C 99 % 1026,1 hPa 0,0 l/m 6,5 km/h (2 Bft) O-NO 57 0 min 0,000 mm 0,0 UV-I 0 W/m 4,9 C 4,9 C 11,3 km/h (2 Bft) 99,13 %
19.12.2015 20:10 5,0 C 99 % 1026,2 hPa 0,0 l/m 5,2 km/h (1 Bft) O-NO 65 0 min 0,000 mm 0,0 UV-I 0 W/m 4,9 C 5,0 C 8,0 km/h (2 Bft) 98,25 %
19.12.2015 20:15 5,0 C 99 % 1026,2 hPa 0,0 l/m 8,0 km/h (2 Bft) O 87 0 min 0,000 mm 0,0 UV-I 0 W/m 4,9 C 3,6 C 12,9 km/h (3 Bft) 100,00 %
19.12.2015 20:20 5,1 C 99 % 1026,4 hPa 0,0 l/m 4,9 km/h (1 Bft) O-NO 57 0 min 0,000 mm 0,0 UV-I 0 W/m 5,0 C 5,1 C 8,0 km/h (2 Bft) 99,11 %
19.12.2015 20:25 5,1 C 99 % 1026,4 hPa 0,0 l/m 5,8 km/h (2 Bft) NO 53 0 min 0,000 mm 0,0 UV-I 0 W/m 5,0 C 5,1 C 8,0 km/h (2 Bft) 100,00 %
19.12.2015 20:30 5,1 C 99 % 1026,4 hPa 0,0 l/m 5,8 km/h (2 Bft) O-SO 111 0 min 0,000 mm 0,0 UV-I 0 W/m 5,0 C 5,1 C 11,3 km/h (2 Bft) 100,00 %
19.12.2015 20:35 5,1 C 99 % 1026,4 hPa 0,0 l/m 5,7 km/h (1 Bft) NO 34 0 min 0,000 mm 0,0 UV-I 0 W/m 5,0 C 5,1 C 8,0 km/h (2 Bft) 98,11 %
19.12.2015 20:40 5,1 C 99 % 1026,3 hPa 0,0 l/m 7,1 km/h (2 Bft) O-NO 72 0 min 0,000 mm 0,0 UV-I 0 W/m 5,0 C 4,5 C 9,7 km/h (2 Bft) 98,33 %
19.12.2015 20:45 5,1 C 99 % 1026,2 hPa 0,0 l/m 7,5 km/h (2 Bft) O-NO 64 0 min 0,000 mm 0,0 UV-I 0 W/m 5,0 C 4,1 C 14,5 km/h (3 Bft) 100,00 %
19.12.2015 20:50 5,0 C 99 % 1026,1 hPa 0,0 l/m 8,1 km/h (2 Bft) NO 45 0 min 0,000 mm 0,0 UV-I 0 W/m 4,9 C 3,5 C 16,1 km/h (3 Bft) 97,25 %
19.12.2015 20:55 5,0 C 99 % 1026,1 hPa 0,0 l/m 7,9 km/h (2 Bft) NO 56 0 min 0,000 mm 0,0 UV-I 0 W/m 4,9 C 3,7 C 16,1 km/h (3 Bft) 100,00 %
19.12.2015 21:00 5,0 C 99 % 1026,1 hPa 0,0 l/m 7,7 km/h (2 Bft) O-NO 76 0 min 0,000 mm 0,0 UV-I 0 W/m 4,9 C 3,9 C 14,5 km/h (3 Bft) 99,00 %
19.12.2015 21:05 5,0 C 99 % 1026,1 hPa 0,0 l/m 7,0 km/h (2 Bft) O-SO 103 0 min 0,000 mm 0,0 UV-I 0 W/m 4,9 C 4,5 C 14,5 km/h (3 Bft) 97,62 %
19.12.2015 21:10 5,0 C 99 % 1026,0 hPa 0,0 l/m 6,9 km/h (2 Bft) O-SO 103 0 min 0,000 mm 0,0 UV-I 0 W/m 4,9 C 4,6 C 12,9 km/h (3 Bft) 97,25 %
19.12.2015 21:25 5,0 C 99 % 1026,2 hPa 0,0 l/m 6,9 km/h (2 Bft) O-NO 76 0 min 0,000 mm 0,0 UV-I 0 W/m 4,9 C 4,6 C 11,3 km/h (2 Bft) 96,42 %
19.12.2015 21:30 5,1 C 99 % 1026,3 hPa 0,0 l/m 3,9 km/h (1 Bft) O-NO 72 0 min 0,000 mm 0,0 UV-I 0 W/m 5,0 C 5,1 C 6,4 km/h (2 Bft) 97,50 %
19.12.2015 21:35 5,1 C 99 % 1026,2 hPa 0,0 l/m 5,5 km/h (1 Bft) O-NO 59 0 min 0,000 mm 0,0 UV-I 0 W/m 5,0 C 5,1 C 11,3 km/h (2 Bft) 98,26 %
19.12.2015 21:40 5,0 C 99 % 1026,2 hPa 0,0 l/m 5,3 km/h (1 Bft) NO 46 0 min 0,000 mm 0,0 UV-I 0 W/m 4,9 C 5,0 C 8,0 km/h (2 Bft) 96,43 %
19.12.2015 21:45 4,9 C 99 % 1026,1 hPa 0,0 l/m 6,2 km/h (2 Bft) NO 55 0 min 0,000 mm 0,0 UV-I 0 W/m 4,8 C 4,9 C 9,7 km/h (2 Bft) 97,62 %
19.12.2015 21:50 4,9 C 99 % 1026,0 hPa 0,0 l/m 5,9 km/h (2 Bft) O-NO 59 0 min 0,000 mm 0,0 UV-I 0 W/m 4,8 C 4,9 C 9,7 km/h (2 Bft) 99,13 %
19.12.2015 21:55 4,8 C 99 % 1026,1 hPa 0,0 l/m 6,1 km/h (2 Bft) O-NO 70 0 min 0,000 mm 0,0 UV-I 0 W/m 4,7 C 4,8 C 11,3 km/h (2 Bft) 99,15 %
19.12.2015 22:00 4,9 C 99 % 1026,0 hPa 0,0 l/m 6,0 km/h (2 Bft) O-NO 74 0 min 0,000 mm 0,0 UV-I 0 W/m 4,8 C 4,9 C 11,3 km/h (2 Bft) 100,00 %
19.12.2015 22:05 4,8 C 99 % 1025,9 hPa 0,0 l/m 6,6 km/h (2 Bft) O-NO 68 0 min 0,000 mm 0,0 UV-I 0 W/m 4,7 C 4,6 C 11,3 km/h (2 Bft) 100,00 %
19.12.2015 22:10 4,8 C 99 % 1025,8 hPa 0,0 l/m 5,8 km/h (2 Bft) O-NO 65 0 min 0,000 mm 0,0 UV-I 0 W/m 4,7 C 4,8 C 14,5 km/h (3 Bft) 99,11 %
19.12.2015 22:15 4,8 C 99 % 1025,8 hPa 0,0 l/m 5,8 km/h (2 Bft) O-NO 67 0 min 0,000 mm 0,0 UV-I 0 W/m 4,7 C 4,8 C 8,0 km/h (2 Bft) 99,15 %
19.12.2015 22:20 4,8 C 99 % 1025,8 hPa 0,0 l/m 4,8 km/h (1 Bft) NO 48 0 min 0,000 mm 0,0 UV-I 0 W/m 4,7 C 4,8 C 8,0 km/h (2 Bft) 99,13 %
19.12.2015 22:25 4,8 C 99 % 1025,8 hPa 0,0 l/m 5,2 km/h (1 Bft) O-NO 63 0 min 0,000 mm 0,0 UV-I 0 W/m 4,7 C 4,8 C 8,0 km/h (2 Bft) 99,19 %
19.12.2015 22:30 4,8 C 99 % 1025,8 hPa 0,0 l/m 6,9 km/h (2 Bft) O-NO 61 0 min 0,000 mm 0,0 UV-I 0 W/m 4,7 C 4,4 C 12,9 km/h (3 Bft) 100,00 %
19.12.2015 22:35 4,8 C 99 % 1025,8 hPa 0,0 l/m 6,3 km/h (2 Bft) O-NO 77 0 min 0,000 mm 0,0 UV-I 0 W/m 4,7 C 4,8 C 9,7 km/h (2 Bft) 99,15 %
19.12.2015 22:40 4,8 C 99 % 1025,7 hPa 0,0 l/m 8,7 km/h (2 Bft) NO 47 0 min 0,000 mm 0,0 UV-I 0 W/m 4,7 C 2,8 C 12,9 km/h (3 Bft) 99,15 %
19.12.2015 22:45 4,7 C 99 % 1025,7 hPa 0,0 l/m 6,7 km/h (2 Bft) O-NO 60 0 min 0,000 mm 0,0 UV-I 0 W/m 4,6 C 4,4 C 9,7 km/h (2 Bft) 99,17 %
19.12.2015 22:50 4,6 C 99 % 1025,8 hPa 0,0 l/m 6,9 km/h (2 Bft) O-NO 68 0 min 0,000 mm 0,0 UV-I 0 W/m 4,5 C 4,2 C 12,9 km/h (3 Bft) 99,17 %
19.12.2015 22:55 4,6 C 99 % 1025,8 hPa 0,0 l/m 4,1 km/h (1 Bft) N-NO 30 0 min 0,000 mm 0,0 UV-I 0 W/m 4,5 C 4,6 C 9,7 km/h (2 Bft) 99,17 %
19.12.2015 23:00 4,6 C 99 % 1025,9 hPa 0,0 l/m 5,7 km/h (1 Bft) NO 51 0 min 0,000 mm 0,0 UV-I 0 W/m 4,5 C 4,6 C 8,0 km/h (2 Bft) 99,08 %
19.12.2015 23:05 4,5 C 99 % 1025,9 hPa 0,0 l/m 6,3 km/h (2 Bft) N-NO 28 0 min 0,000 mm 0,0 UV-I 0 W/m 4,4 C 4,5 C 11,3 km/h (2 Bft) 98,25 %
19.12.2015 23:10 4,4 C 99 % 1025,9 hPa 0,0 l/m 8,2 km/h (2 Bft) NO 41 0 min 0,000 mm 0,0 UV-I 0 W/m 4,3 C 2,8 C 12,9 km/h (3 Bft) 96,06 %
19.12.2015 23:15 4,3 C 99 % 1026,0 hPa 0,0 l/m 8,2 km/h (2 Bft) N-NO 18 0 min 0,000 mm 0,0 UV-I 0 W/m 4,2 C 2,7 C 12,9 km/h (3 Bft) 97,44 %
19.12.2015 23:20 4,2 C 99 % 1026,0 hPa 0,0 l/m 9,3 km/h (2 Bft) N-NO 27 0 min 0,000 mm 0,0 UV-I 0 W/m 4,1 C 1,7 C 14,5 km/h (3 Bft) 97,17 %
19.12.2015 23:25 4,1 C 99 % 1025,9 hPa 0,0 l/m 9,0 km/h (2 Bft) O-NO 59 0 min 0,000 mm 0,0 UV-I 0 W/m 4,0 C 1,8 C 14,5 km/h (3 Bft) 95,87 %
19.12.2015 23:30 4,1 C 99 % 1025,9 hPa 0,0 l/m 7,9 km/h (2 Bft) NO 54 0 min 0,000 mm 0,0 UV-I 0 W/m 4,0 C 2,7 C 12,9 km/h (3 Bft) 96,67 %
19.12.2015 23:35 3,9 C 99 % 1025,9 hPa 0,0 l/m 8,4 km/h (2 Bft) NO 47 0 min 0,000 mm 0,0 UV-I 0 W/m 3,8 C 2,1 C 14,5 km/h (3 Bft) 97,52 %
19.12.2015 23:40 3,9 C 99 % 1025,9 hPa 0,0 l/m 5,5 km/h (1 Bft) N-NO 31 0 min 0,000 mm 0,0 UV-I 0 W/m 3,8 C 3,9 C 9,7 km/h (2 Bft) 97,17 %
19.12.2015 23:45 3,9 C 99 % 1025,9 hPa 0,0 l/m 5,7 km/h (1 Bft) NO 46 0 min 0,000 mm 0,0 UV-I 0 W/m 3,8 C 3,9 C 11,3 km/h (2 Bft) 97,50 %
19.12.2015 23:50 3,9 C 99 % 1026,0 hPa 0,0 l/m 9,9 km/h (2 Bft) O-NO 58 0 min 0,000 mm 0,0 UV-I 0 W/m 3,8 C 0,9 C 16,1 km/h (3 Bft) 99,17 %
19.12.2015 23:55 3,8 C 99 % 1026,0 hPa 0,0 l/m 10,5 km/h (2 Bft) O-NO 74 0 min 0,000 mm 0,0 UV-I 0 W/m 3,7 C 0,4 C 16,1 km/h (3 Bft) 97,39 %
_ Min-Zeit 05:55 00:00 14:35 - 00:05 - - - - - - 05:50 23:55 00:05 12:55
Minimum _ 3,2 C 97 % 1025,1 hPa - 0,0 km/h (0 Bft) - - - - - - 3,2 C 0,4 C 0,0 km/h (0 Bft) 94,85 %
_ Max-Zeit 00:00 01:00 10:25 05:40 23:55 - - 00:00 11:05 00:00 11:15 14:30 14:30 20:50 00:10
Maximum _ 6,5 C 99 % 1027,3 hPa 0,2 l/m 10,5 km/h
O-NO (2 Bft)
- - 0 min 0,026 mm 0,0 UV-I 97 W/m 6,3 C 6,4 C 16,1 km/h
O-NO (3 Bft)
100,00 %
Durchschnitt _ 5,1 C 99 % 1026,2 hPa #0,2 l/m 2,6 km/h (1 Bft) O-NO - #0 min. #0,152 mm 0,0 UV-I 53 W/m 4,9 C 5,0 C 5,2 km/h (1 Bft) 98,46 %